Time,TemperatureF,DewpointF,PressureIn,WindDirection,WindDirectionDegrees,WindSpeedMPH,WindSpeedGustMPH,Humidity,HourlyPrecipIn,Conditions,Clouds,dailyrainin,SoftwareType,DateUTC
2013-08-16 03:21:00,55.0,54.0,-100.00,West,265,2.0,2.0,94,0.00,,,-99.99,,2013-08-16 08:21:00,
2013-08-16 05:23:00,55.0,53.0,-100.00,WSW,255,2.0,2.0,95,0.00,,,-99.99,,2013-08-16 10:23:00,
2013-08-16 05:42:00,54.0,53.0,-100.00,West,270,2.0,2.0,95,0.00,,,-99.99,,2013-08-16 10:42:00,
2013-08-16 06:21:00,53.0,52.0,-100.00,West,260,2.0,3.0,95,0.00,,,-99.99,,2013-08-16 11:21:00,
2013-08-16 07:12:00,54.0,53.0,-100.00,WSW,255,1.0,2.0,95,0.00,,,-99.99,,2013-08-16 12:12:00,
2013-08-16 07:21:00,55.0,54.0,-100.00,WSW,255,1.0,1.0,95,0.00,,,-99.99,,2013-08-16 12:21:00,
2013-08-16 07:42:00,56.0,55.0,-100.00,West,270,2.0,3.0,94,0.00,,,-99.99,,2013-08-16 12:42:00,
2013-08-16 08:42:00,62.0,56.0,-100.00,West,270,1.0,2.0,80,0.00,,,-99.99,,2013-08-16 13:42:00,
2013-08-16 10:22:00,72.0,53.0,-100.00,East,80,7.0,10.0,50,0.00,,,-99.99,,2013-08-16 15:22:00,
2013-08-16 10:43:00,74.0,53.0,-100.00,ESE,110,4.0,9.0,46,0.00,,,-99.99,,2013-08-16 15:43:00,
2013-08-16 11:23:00,74.0,51.0,-100.00,ENE,60,9.0,11.0,45,0.00,,,-99.99,,2013-08-16 16:23:00,
2013-08-16 11:43:00,76.0,52.0,-100.00,ESE,120,5.0,11.0,42,0.00,,,-99.99,,2013-08-16 16:43:00,
2013-08-16 12:28:00,75.0,51.0,-100.00,NE,55,9.0,12.0,42,0.00,,,-99.99,,2013-08-16 17:28:00,
2013-08-16 12:47:00,74.0,50.0,-100.00,ENE,60,5.0,10.0,42,0.00,,,-99.99,,2013-08-16 17:47:00,
2013-08-16 13:28:00,77.0,51.0,-100.00,North,5,4.0,9.0,39,0.00,,,-99.99,,2013-08-16 18:28:00,
2013-08-16 13:50:00,-999.0,-99.9,-100.00,NE,55,7.0,11.0,41,0.00,,,-99.99,,2013-08-16 18:50:00,
2013-08-16 14:25:00,78.0,50.0,-100.00,NE,55,4.0,10.0,38,0.00,,,-99.99,,2013-08-16 19:25:00,
2013-08-16 14:46:00,76.0,50.0,-100.00,East,100,7.0,12.0,40,0.00,,,-99.99,,2013-08-16 19:46:00,
2013-08-16 15:23:00,77.0,49.0,-100.00,ESE,110,7.0,10.0,37,0.00,,,-99.99,,2013-08-16 20:23:00,
2013-08-16 15:44:00,81.0,51.0,-100.00,SSE,150,6.0,8.0,35,0.00,,,-99.99,,2013-08-16 20:44:00,
2013-08-16 16:25:00,81.0,50.0,-100.00,SSE,150,4.0,7.0,34,0.00,,,-99.99,,2013-08-16 21:25:00,
2013-08-16 16:40:00,-999.0,-99.9,-100.00,East,80,2.0,8.0,-999,0.00,,,-99.99,,2013-08-16 21:40:00,
2013-08-16 17:24:00,76.0,51.0,-100.00,ENE,60,9.0,13.0,40,0.00,,,-99.99,,2013-08-16 22:24:00,
2013-08-16 17:43:00,76.0,50.0,-100.00,NE,45,6.0,9.0,39,0.00,,,-99.99,,2013-08-16 22:43:00,
2013-08-16 18:23:00,78.0,50.0,-100.00,ENE,65,6.0,11.0,38,0.00,,,-99.99,,2013-08-16 23:23:00,